Kuiper-00124

operational
NORAD ID: 65953 Int'l Des: 2025-228 Owner: KUIP Country: US Constellation: kuiper
NOTLE

About Kuiper-00124

Description loading...

Live Position

Loading 3D Globe...

Upcoming Passes

Altitude History

Altitude vs Time

uPlot chart will show altitude changes over time

Two-Line Element Set

1 65953U 25228G 25318.54145428 .00033694 00000-0 99866-3 0 9995
2 65953 51.8773 156.5577 0003511 282.4703 77.5889 15.34532363 6086
Epoch: Nov 14, 2025 • Age: 13 hours

Current Status

Altitude 463.4 km
Velocity 7.64 km/s
Sub-Earth Point 12.82°N, 123.88°W
Launch Date Oct 14, 2025
Age 32 days
Type internet

Technical Details

Classification Payload
Mass 490.00 kg
Dry Mass 490.00 kg
Total Mass 490.00 kg
Length 1.80 m
Diameter 0.70 m
Span 5.00 m
Shape Box + 2 pan
Manufacturer KUIP
Bus Type Kuiper
Phase Status In Orbit
Owner/State KUIP/US

Large Constellations

Loading constellations...